User: anonymous   Login
Location: Chuathbaluk
(61.5726°N, 159.2454°W)
Time: 13:28:06
(UTC+00:00)
Language:

XW-2B - Orbit

View from above orbital plane
View from above orbital plane
View from above satellite
View from above satellite

Ground track
Ground track

The orbit data is extracted from the following two-line orbital elements,

1 40911U 15049N   21016.09803815  .00000753  00000-0  41861-4 0  9997
2 40911  97.4811  20.8653 0014011   1.0343  71.7664 15.16627919294394
Epoch (UTC): 16 January 2021 02:21:10
Eccentricity: 0.0014011
inclination: 97.4811°
perigee height: 506 km
apogee height: 526 km
right ascension of ascending node: 20.8653°
argument of perigee: 1.0343°
revolutions per day: 15.16627919
mean anomaly at epoch: 71.7664°
orbit number at epoch: 29439

The dashed part of the orbit path shows where the satellite is in the earth's shadow,  

DLR